TimeCST,TemperatureF,Dew PointF,Humidity,Sea Level PressureIn,VisibilityMPH,Wind Direction,Wind SpeedMPH,Gust SpeedMPH,PrecipitationIn,Events,Conditions,WindDirDegrees,DateUTC
12:52 AM,30.9,15.1,52,30.24,10.0,West,10.4,-,N/A,,Overcast,260,2012-11-28 06:52:00
1:52 AM,30.9,15.1,52,30.25,9.0,West,10.4,-,0.00,,Overcast,270,2012-11-28 07:52:00
2:52 AM,30.0,15.1,54,30.25,10.0,WSW,9.2,-,N/A,,Clear,250,2012-11-28 08:52:00
3:52 AM,28.9,15.1,56,30.26,10.0,West,8.1,-,N/A,,Partly Cloudy,260,2012-11-28 09:52:00
4:52 AM,28.0,15.1,58,30.28,10.0,WNW,6.9,-,N/A,,Clear,290,2012-11-28 10:52:00
5:52 AM,27.0,15.1,61,30.30,10.0,West,5.8,-,N/A,,Clear,280,2012-11-28 11:52:00
6:52 AM,26.1,15.1,63,30.32,10.0,Variable,4.6,-,N/A,,Clear,0,2012-11-28 12:52:00
7:52 AM,27.0,16.0,63,30.35,10.0,WNW,6.9,-,N/A,,Clear,300,2012-11-28 13:52:00
8:52 AM,28.9,17.1,61,30.37,10.0,WNW,9.2,-,N/A,,Clear,300,2012-11-28 14:52:00
9:52 AM,32.0,18.0,56,30.37,10.0,WNW,8.1,-,N/A,,Clear,290,2012-11-28 15:52:00
10:52 AM,34.0,19.9,56,30.37,10.0,WNW,11.5,-,N/A,,Partly Cloudy,290,2012-11-28 16:52:00
11:52 AM,36.0,19.9,52,30.35,10.0,West,8.1,-,N/A,,Partly Cloudy,270,2012-11-28 17:52:00
12:52 PM,37.9,19.9,48,30.33,10.0,West,5.8,-,N/A,,Partly Cloudy,270,2012-11-28 18:52:00
1:52 PM,39.9,19.0,43,30.32,10.0,West,9.2,-,N/A,,Partly Cloudy,280,2012-11-28 19:52:00
2:52 PM,39.9,18.0,41,30.31,10.0,WSW,6.9,-,N/A,,Partly Cloudy,250,2012-11-28 20:52:00
3:52 PM,39.0,18.0,43,30.31,10.0,WSW,6.9,-,N/A,,Partly Cloudy,240,2012-11-28 21:52:00
4:52 PM,35.1,19.0,52,30.31,10.0,SW,5.8,-,N/A,,Partly Cloudy,220,2012-11-28 22:52:00
5:52 PM,33.1,19.9,59,30.30,10.0,SSW,5.8,-,N/A,,Partly Cloudy,210,2012-11-28 23:52:00
6:52 PM,34.0,19.9,56,30.30,10.0,SW,8.1,-,N/A,,Partly Cloudy,230,2012-11-29 00:52:00
7:52 PM,33.1,19.9,59,30.30,10.0,SW,6.9,-,N/A,,Partly Cloudy,230,2012-11-29 01:52:00
8:52 PM,34.0,19.9,56,30.28,10.0,SW,5.8,-,N/A,,Mostly Cloudy,230,2012-11-29 02:52:00
9:52 PM,33.1,21.0,61,30.27,10.0,SW,8.1,-,N/A,,Mostly Cloudy,230,2012-11-29 03:52:00
10:52 PM,35.1,21.0,57,30.26,10.0,SW,6.9,-,N/A,,Overcast,230,2012-11-29 04:52:00
11:52 PM,35.1,21.0,57,30.26,10.0,SW,8.1,-,N/A,,Overcast,220,2012-11-29 05:52:00